Location: �clusier
(49.9361°N, 2.7869°E)
Time: 08:06:01
(UTC+00:00)

Cosmos 1503 Rocket - Pass Details

Date: 16 June 2021
Orbit: 752 x 791 km, 74.0° (Epoch: 01 August)

Event Time Altitude Azimuth Distance (km) Brightness Sun altitude
Rises 23:08:39 0° 334° (NNW) 3,300 8.8 -16.1°
Reaches altitude 10° 23:11:03 10° 333° (NNW) 2,367 7.7 -16.2°
Maximum altitude 23:16:25 72° 250° (WSW) 836 4.1 -16.3°
Enters shadow 23:19:22 27° 172° (S) 1,475 4.9 -16.4°
